| time (UTC) | temp F | wind direction | speed MPH | gust MPH | rain 1hr in | rain 24hr in | rain mn in | humidity % | barometer mb |
| 20260507084537 | 53 | 320 | 2.0 | 3.0 | 0.00 | 0.00 | 0.00 | 1 | 1015.9 |
| 20260507083032 | 53 | 319 | 1.0 | 3.0 | 0.00 | 0.00 | 0.00 | 1 | 1016.2 |
| 20260507081527 | 53 | 319 | 2.0 | 5.0 | 0.00 | 0.00 | 0.00 | 1 | 1016.2 |
| 20260507080024 | 53 | 315 | 2.0 | 4.0 | 0.00 | 0.00 | 0.00 | 1 | 1016.3 |
| 20260507074518 | 53 | 315 | 0.0 | 2.0 | 0.00 | 0.00 | 0.00 | 1 | 1016.4 |
| 20260507073014 | 53 | 303 | 2.0 | 5.0 | 0.00 | 0.00 | 0.00 | 1 | 1016.3 |
| 20260507071510 | 53 | 321 | 1.0 | 5.0 | 0.00 | 0.00 | 0.00 | 1 | 1016.5 |
| 20260507070011 | 53 | 347 | 1.0 | 3.0 | 0.00 | 0.00 | 0.00 | 1 | 1016.5 |
| 20260507064500 | 53 | 317 | 1.0 | 3.0 | 0.00 | 0.00 | 0.00 | 1 | 1016.6 |
| 20260507063057 | 53 | 294 | 1.0 | 3.0 | 0.00 | 0.00 | 0.00 | 1 | 1016.7 |
| 20260507061553 | 54 | 289 | 0.0 | 3.0 | 0.00 | 0.00 | 0.00 | 1 | 1016.6 |
| 20260507060055 | 54 | 275 | 0.0 | 3.0 | 0.00 | 0.00 | 0.00 | 1 | 1016.6 |
| 20260507054548 | 55 | 272 | 0.0 | 2.0 | 0.00 | 0.00 | 0.00 | 1 | 1016.5 |
| 20260507053041 | 55 | 272 | 0.0 | 0.0 | 0.00 | 0.00 | 0.00 | 1 | 1016.6 |
| 20260507051535 | 56 | 272 | 0.0 | 0.0 | 0.00 | 0.00 | 0.00 | 1 | 1016.8 |
| 20260507050030 | 56 | 272 | 0.0 | 0.0 | 0.00 | 0.00 | 0.00 | 1 | 1016.7 |
| 20260507044544 | 57 | 272 | 0.0 | 0.0 | 0.00 | 0.00 | 0.00 | 1 | 1016.4 |
| 20260507043021 | 57 | 272 | 0.0 | 0.0 | 0.00 | 0.00 | 0.00 | 1 | 1016.5 |
| 20260507041517 | 58 | 272 | 0.0 | 1.0 | 0.00 | 0.00 | 0.00 | 1 | 1016.3 |
| 20260507040013 | 59 | 272 | 0.0 | 2.0 | 0.00 | 0.00 | 0.00 | 1 | 1016.2 |
| 20260507034508 | 60 | 267 | 0.0 | 2.0 | 0.00 | 0.00 | 0.00 | 1 | 1016.2 |
| 20260507033004 | 62 | 293 | 0.0 | 2.0 | 0.00 | 0.00 | 0.00 | 1 | 1015.9 |
| 20260507031559 | 62 | 297 | 0.0 | 2.0 | 0.00 | 0.00 | 0.00 | 1 | 1015.8 |
| 20260507024555 | 64 | 310 | 2.0 | 6.0 | 0.00 | 0.00 | 0.00 | 1 | 1015.7 |
| 20260507023045 | 65 | 275 | 2.0 | 9.0 | 0.00 | 0.00 | 0.00 | 1 | 1015.6 |
| 20260507021541 | 65 | 284 | 4.0 | 8.0 | 0.00 | 0.00 | 0.00 | 1 | 1015.5 |
| 20260507020045 | 66 | 269 | 3.0 | 9.0 | 0.00 | 0.00 | 0.00 | 1 | 1015.4 |
| 20260507014535 | 67 | 279 | 4.0 | 10.0 | 0.00 | 0.00 | 0.00 | 1 | 1015.5 |
| 20260507013030 | 69 | 296 | 5.0 | 10.0 | 0.00 | 0.00 | 0.00 | 1 | 1015.2 |
| 20260507011522 | 69 | 326 | 5.0 | 11.0 | 0.00 | 0.00 | 0.00 | 1 | 1015.2 |
| 20260507010025 | 69 | 273 | 5.0 | 10.0 | 0.00 | 0.00 | 0.00 | 1 | 1015.2 |
| 20260507004513 | 70 | 306 | 4.0 | 9.0 | 0.00 | 0.00 | 0.00 | 1 | 1015.2 |
| 20260507003017 | 70 | 304 | 7.0 | 12.0 | 0.00 | 0.00 | 0.00 | 1 | 1015.1 |
| 20260507001510 | 71 | 281 | 4.0 | 10.0 | 0.00 | 0.00 | 0.00 | 1 | 1015.0 |
| 20260507000003 | 70 | 221 | 5.0 | 12.0 | 0.00 | 0.00 | 0.00 | 1 | 1015.0 |
| 20260506234557 | 71 | 311 | 6.0 | 12.0 | 0.00 | 0.00 | 0.00 | 1 | 1014.9 |
| 20260506233053 | 71 | 244 | 6.0 | 11.0 | 0.00 | 0.00 | 0.00 | 1 | 1014.9 |
| 20260506231548 | 71 | 296 | 7.0 | 14.0 | 0.00 | 0.00 | 0.00 | 1 | 1014.9 |
| 20260506230043 | 70 | 288 | 8.0 | 13.0 | 0.00 | 0.00 | 0.00 | 1 | 1014.8 |
| 20260506224549 | 71 | 273 | 6.0 | 12.0 | 0.00 | 0.00 | 0.00 | 1 | 1014.8 |
| 20260506223035 | 70 | 255 | 4.0 | 13.0 | 0.00 | 0.00 | 0.00 | 1 | 1014.8 |
| 20260506221530 | 71 | 317 | 9.0 | 15.0 | 0.00 | 0.00 | 0.00 | 1 | 1014.8 |
| 20260506220029 | 71 | 320 | 8.0 | 14.0 | 0.00 | 0.00 | 0.00 | 1 | 1015.2 |
| 20260506214522 | 71 | 252 | 8.0 | 15.0 | 0.00 | 0.00 | 0.00 | 1 | 1015.3 |
| 20260506213017 | 71 | 308 | 8.0 | 15.0 | 0.00 | 0.00 | 0.00 | 1 | 1015.4 |
| 20260506211513 | 71 | 285 | 7.0 | 14.0 | 0.00 | 0.00 | 0.00 | 1 | 1015.3 |
| 20260506210010 | 72 | 242 | 5.0 | 16.0 | 0.00 | 0.01 | 0.00 | 1 | 1015.4 |
| 20260506204504 | 72 | 277 | 8.0 | 13.0 | 0.00 | 0.01 | 0.00 | 1 | 1015.6 |
| 20260506203059 | 72 | 240 | 6.0 | 12.0 | 0.00 | 0.01 | 0.00 | 1 | 1015.7 |
| 20260506201556 | 72 | 224 | 6.0 | 14.0 | 0.00 | 0.01 | 0.00 | 1 | 1015.6 |
| 20260506200051 | 73 | 222 | 6.0 | 11.0 | 0.00 | 0.01 | 0.00 | 1 | 1015.5 |
| 20260506194558 | 74 | 216 | 8.0 | 14.0 | 0.00 | 0.01 | 0.00 | 1 | 1015.7 |
| 20260506193041 | 73 | 273 | 2.0 | 10.0 | 0.00 | 0.01 | 0.00 | 1 | 1015.7 |
| 20260506191537 | 72 | 350 | 5.0 | 11.0 | 0.00 | 0.01 | 0.00 | 1 | 1016.1 |
| 20260506190033 | 72 | 299 | 3.0 | 10.0 | 0.00 | 0.01 | 0.00 | 1 | 1016.1 |
| 20260506184531 | 71 | 200 | 1.0 | 11.0 | 0.00 | 0.01 | 0.00 | 1 | 1016.3 |
| 20260506183024 | 70 | 340 | 2.0 | 6.0 | 0.00 | 0.01 | 0.00 | 1 | 1016.3 |
| 20260506181519 | 69 | 207 | 4.0 | 8.0 | 0.00 | 0.01 | 0.00 | 1 | 1016.8 |
| 20260506180024 | 69 | 280 | 7.0 | 11.0 | 0.00 | 0.01 | 0.00 | 1 | 1016.9 |
| 20260506174510 | 68 | 329 | 3.0 | 9.0 | 0.00 | 0.01 | 0.00 | 1 | 1017.1 |
| 20260506173005 | 67 | 350 | 4.0 | 12.0 | 0.00 | 0.01 | 0.00 | 1 | 1017.3 |
| 20260506171503 | 67 | 290 | 2.0 | 10.0 | 0.00 | 0.01 | 0.00 | 1 | 1017.3 |
| 20260506164559 | 66 | 324 | 0.0 | 5.0 | 0.00 | 0.02 | 0.00 | 1 | 1017.1 |
| 20260506163049 | 64 | 218 | 0.0 | 9.0 | 0.00 | 0.02 | 0.00 | 1 | 1017.4 |
| 20260506161544 | 62 | 72 | 0.0 | 4.0 | 0.00 | 0.02 | 0.00 | 1 | 1017.4 |
| 20260506160041 | 58 | 119 | 1.0 | 7.0 | 0.00 | 0.02 | 0.00 | 1 | 1017.3 |
| 20260506154534 | 56 | 159 | 0.0 | 1.0 | 0.00 | 0.02 | 0.00 | 1 | 1017.4 |
| 20260506153032 | 55 | 181 | 1.0 | 4.0 | 0.00 | 0.02 | 0.00 | 1 | 1017.5 |
| 20260506151532 | 55 | 196 | 0.0 | 3.0 | 0.00 | 0.02 | 0.00 | 1 | 1017.6 |
| 20260506150021 | 54 | 210 | 0.0 | 2.0 | 0.00 | 0.03 | 0.00 | 1 | 1017.7 |
| 20260506144516 | 53 | 187 | 0.0 | 2.0 | 0.00 | 0.03 | 0.00 | 1 | 1017.6 |
| 20260506143012 | 51 | 132 | 0.0 | 1.0 | 0.00 | 0.03 | 0.00 | 1 | 1017.7 |
| 20260506141507 | 51 | 57 | 0.0 | 2.0 | 0.00 | 0.03 | 0.00 | 1 | 1017.7 |
| 20260506140004 | 51 | 219 | 0.0 | 1.0 | 0.00 | 0.03 | 0.00 | 1 | 1017.6 |
| 20260506134600 | 50 | 209 | 0.0 | 2.0 | 0.00 | 0.03 | 0.00 | 1 | 1017.5 |
| 20260506133102 | 49 | 217 | 0.0 | 1.0 | 0.00 | 0.03 | 0.00 | 1 | 1017.3 |
| 20260506131550 | 48 | 215 | 1.0 | 3.0 | 0.00 | 0.03 | 0.00 | 1 | 1017.2 |
| 20260506130046 | 48 | 326 | 1.0 | 3.0 | 0.00 | 0.04 | 0.00 | 1 | 1017.1 |
| 20260506124541 | 47 | 326 | 0.0 | 2.0 | 0.00 | 0.04 | 0.00 | 1 | 1017.0 |
| 20260506123037 | 47 | 326 | 0.0 | 3.0 | 0.00 | 0.04 | 0.00 | 1 | 1016.7 |
| 20260506121533 | 47 | 331 | 1.0 | 3.0 | 0.00 | 0.04 | 0.00 | 1 | 1016.8 |
| 20260506120037 | 47 | 342 | 2.0 | 4.0 | 0.00 | 0.06 | 0.00 | 1 | 1016.7 |
| 20260506114525 | 47 | 342 | 3.0 | 5.0 | 0.00 | 0.06 | 0.00 | 1 | 1016.8 |
| 20260506113021 | 47 | 339 | 1.0 | 3.0 | 0.00 | 0.06 | 0.00 | 1 | 1016.6 |
| 20260506111516 | 47 | 338 | 1.0 | 3.0 | 0.00 | 0.06 | 0.00 | 1 | 1016.7 |
| 20260506110012 | 47 | 338 | 0.0 | 2.0 | 0.00 | 0.09 | 0.00 | 1 | 1016.5 |
| 20260506104508 | 47 | 338 | 1.0 | 3.0 | 0.00 | 0.09 | 0.00 | 1 | 1016.6 |
| 20260506103003 | 47 | 342 | 2.0 | 4.0 | 0.00 | 0.09 | 0.00 | 1 | 1016.4 |
| 20260506101559 | 47 | 346 | 2.0 | 4.0 | 0.00 | 0.09 | 0.00 | 1 | 1016.3 |
| 20260506100059 | 47 | 341 | 3.0 | 5.0 | 0.00 | 0.09 | 0.00 | 1 | 1016.2 |
| 20260506094550 | 48 | 319 | 1.0 | 2.0 | 0.00 | 0.14 | 0.00 | 1 | 1016.3 |
| 20260506093045 | 47 | 317 | 2.0 | 5.0 | 0.00 | 0.14 | 0.00 | 1 | 1016.3 |
| 20260506091541 | 47 | 326 | 2.0 | 4.0 | 0.00 | 0.14 | 0.00 | 1 | 1016.4 |
| 20260506090036 | 48 | 319 | 0.0 | 3.0 | 0.00 | 0.20 | 0.00 | 1 | 1016.5 |